GW1546 Weather Reports


time (UTC)temp
C
wind
direction
speed
KPH
gust
KPH
rain 1hr
cm
rain 24hr
cm
rain mn
cm
humidity
%
barometer
mb
20260906105344 21 163 0.0 0.0 0.00 0.00 0.00 99 985.7
20260906104441 21 163 0.0 0.0 0.00 0.00 0.00 99 985.4
20260906104024 21 163 0.0 1.6 0.00 0.00 0.00 99 985.4
20260906103609 21 163 0.0 0.0 0.00 0.00 0.00 99 985.4
20260906103151 21 162 0.0 1.6 0.00 0.00 0.00 99 985.4
20260906102650 21 164 0.0 0.0 0.00 0.00 0.00 99 985.4
20260906102219 21 164 0.0 0.0 0.00 0.00 0.00 99 985.4
20260906101803 21 164 0.0 0.0 0.00 0.00 0.00 99 985.4
20260906101334 21 165 0.0 3.2 0.00 0.00 0.00 99 985.1
20260906100902 21 160 1.6 1.6 0.00 0.00 0.00 99 985.4
20260906100432 21 156 1.6 1.6 0.00 0.00 0.00 99 985.1
20260906100016 21 173 0.0 0.0 0.00 0.00 0.00 99 985.1
20260906095529 21 174 0.0 0.0 0.00 0.00 0.00 99 985.1
20260906095112 21 174 0.0 0.0 0.00 0.00 0.00 99 985.1
20260906093738 21 174 0.0 0.0 0.00 0.00 0.00 99 985.1
20260906093322 21 174 0.0 0.0 0.00 0.00 0.00 99 985.1
20260906092905 21 174 0.0 0.0 0.00 0.00 0.00 99 985.1
20260906092450 21 174 0.0 1.6 0.00 0.00 0.00 99 985.1
20260906092019 21 166 0.0 0.0 0.00 0.00 0.00 99 985.4
20260906091549 21 166 0.0 0.0 0.00 0.00 0.00 99 985.1
20260906091133 21 165 0.0 0.0 0.00 0.00 0.00 99 985.1
20260906090659 21 165 0.0 0.0 0.00 0.00 0.00 99 985.1
20260906090211 21 166 0.0 0.0 0.00 0.00 0.00 99 985.1
20260906085739 21 166 0.0 1.6 0.00 0.00 0.00 99 985.1
20260906085322 21 165 0.0 0.0 0.00 0.00 0.00 99 984.7
20260906084002 21 165 0.0 1.6 0.00 0.00 0.00 99 985.1
20260906083531 21 165 1.6 1.6 0.00 0.00 0.00 99 984.7
20260906083114 21 164 0.0 1.6 0.00 0.00 0.00 99 985.1
20260906082642 21 163 0.0 0.0 0.00 0.00 0.00 99 985.1
20260906082211 21 163 0.0 0.0 0.00 0.00 0.00 99 985.1
20260906081252 21 163 0.0 1.6 0.00 0.00 0.00 99 985.1
20260906080821 21 162 0.0 1.6 0.00 0.00 0.00 99 985.1
20260906080352 21 166 0.0 1.6 0.00 0.00 0.00 99 985.1
20260906075935 21 164 1.6 1.6 0.00 0.00 0.00 99 985.1
20260906075518 21 163 0.0 0.0 0.00 0.00 0.00 99 985.1
20260906075046 21 169 0.0 0.0 0.00 0.00 0.00 99 985.1
20260906074631 21 169 1.6 1.6 0.00 0.00 0.00 99 985.1
20260906074214 21 169 0.0 1.6 0.00 0.00 0.00 99 985.1
20260906073325 21 163 0.0 0.0 0.00 0.00 0.00 99 985.1
20260906072908 21 162 0.0 0.0 0.00 0.00 0.00 99 985.1
20260906072437 21 163 0.0 1.6 0.00 0.00 0.00 99 985.1
20260906071549 21 165 0.0 0.0 0.00 0.00 0.00 99 985.1
20260906071133 21 166 0.0 1.6 0.00 0.00 0.00 99 985.1
20260906065727 21 166 0.0 1.6 0.00 0.00 0.00 99 984.7
20260906065310 21 167 0.0 1.6 0.00 0.00 0.00 99 984.7
20260906064838 21 171 0.0 0.0 0.00 0.00 0.00 99 984.7
20260906063934 21 171 0.0 0.0 0.00 0.00 0.00 99 985.1
20260906063518 21 165 0.0 0.0 0.00 0.00 0.00 99 985.1
20260906063100 21 171 0.0 0.0 0.00 0.00 0.00 99 985.1
20260906062645 21 172 0.0 1.6 0.00 0.00 0.00 99 985.4
20260906061323 21 166 0.0 0.0 0.00 0.00 0.00 99 985.1
20260906060906 21 171 0.0 1.6 0.00 0.00 0.00 99 985.4
20260906060451 21 171 1.6 3.2 0.00 0.00 0.00 99 985.4
20260906060035 21 164 1.6 1.6 0.00 0.00 0.00 99 985.4
20260906055618 21 167 0.0 0.0 0.00 0.00 0.00 99 985.4
20260906055203 21 167 1.6 3.2 0.00 0.00 0.00 99 985.4
20260906054748 21 168 1.6 3.2 0.00 0.00 0.00 99 985.7
20260906054302 21 172 0.0 0.0 0.00 0.00 0.00 99 985.1
20260906053846 21 173 0.0 1.6 0.00 0.00 0.00 99 985.1
20260906053416 21 170 0.0 1.6 0.00 0.00 0.00 99 985.1
20260906052945 21 164 0.0 1.6 0.00 0.00 0.00 99 985.1
20260906052043 21 163 0.0 0.0 0.00 0.00 0.00 99 985.1
20260906050712 21 162 0.0 1.6 0.00 0.00 0.00 99 985.4
20260906045824 21 167 0.0 1.6 0.00 0.00 0.00 99 985.7
20260906045407 21 166 0.0 0.0 0.00 0.00 0.00 99 985.4
20260906044951 21 167 0.0 1.6 0.00 0.00 0.00 99 985.4
20260906044520 21 172 0.0 1.6 0.00 0.00 0.00 99 985.7
20260906044104 21 171 0.0 0.0 0.00 0.00 0.00 99 985.1
20260906042718 21 167 0.0 1.6 0.00 0.00 0.00 99 985.4
20260906042302 21 165 0.0 1.6 0.00 0.00 0.00 99 985.4
20260906041846 21 164 0.0 3.2 0.00 0.00 0.00 99 985.1
20260906040928 21 165 0.0 0.0 0.00 0.00 0.00 99 985.1
20260906040512 21 164 0.0 0.0 0.00 0.00 0.00 99 985.4
20260906040056 21 165 0.0 1.6 0.00 0.00 0.00 99 985.1
20260906035624 21 174 0.0 1.6 0.00 0.00 0.64 99 985.1
20260906035207 21 165 0.0 0.0 0.00 0.00 0.64 99 985.1
20260906034752 21 170 0.0 0.0 0.00 0.00 0.64 99 985.1
20260906033820 21 170 0.0 1.6 0.00 0.00 0.64 99 985.4
20260906033400 22 171 0.0 0.0 0.00 0.00 0.64 99 985.7
20260906032944 22 170 0.0 0.0 0.00 0.00 0.64 99 985.7
20260906032513 22 170 0.0 1.6 0.00 0.00 0.64 99 985.7
20260906032043 22 170 0.0 0.0 0.00 0.00 0.64 99 985.7
20260906031555 22 170 0.0 0.0 0.00 0.00 0.64 99 985.7
20260906031140 21 170 0.0 0.0 0.00 0.00 0.64 99 985.7
20260906030651 22 170 0.0 0.0 0.00 0.00 0.64 99 985.7
20260906030236 22 170 0.0 0.0 0.00 0.00 0.64 99 985.7
20260906025346 22 171 0.0 0.0 0.00 0.00 0.64 99 985.7
20260906024914 22 170 0.0 0.0 0.00 0.00 0.64 99 985.7
20260906024427 22 170 0.0 0.0 0.00 0.00 0.64 99 985.7
20260906023954 22 171 0.0 0.0 0.00 0.00 0.64 99 985.7
20260906023538 22 171 0.0 0.0 0.00 0.00 0.64 99 985.7
20260906023107 22 171 0.0 0.0 0.00 0.00 0.64 99 985.7
20260906022636 22 171 0.0 0.0 0.00 0.00 0.64 99 985.7
20260906022204 22 171 0.0 0.0 0.00 0.00 0.64 99 986.1
20260906021733 22 171 0.0 0.0 0.00 0.00 0.64 99 985.7
20260906021316 22 171 1.6 1.6 0.00 0.00 0.64 99 985.7
20260906020357 22 171 0.0 0.0 0.00 0.00 0.64 99 985.7
20260906015941 22 171 0.0 0.0 0.00 0.00 0.64 99 985.7
20260906015509 22 171 1.6 1.6 0.00 0.00 0.64 99 985.4
20260906014621 22 171 0.0 0.0 0.00 0.00 0.64 99 985.4
20260906014149 22 171 0.0 0.0 0.00 0.00 0.64 99 985.4
20260906013733 22 171 0.0 0.0 0.00 0.00 0.64 99 985.1
20260906013259 23 171 0.0 0.0 0.00 0.00 0.64 99 985.1
20260906012842 23 171 0.0 0.0 0.00 0.00 0.64 99 985.1
20260906012411 23 171 0.0 0.0 0.00 0.00 0.64 99 985.1
20260906011939 23 171 0.0 0.0 0.00 0.00 0.64 99 985.1
20260906011036 23 171 0.0 0.0 0.00 0.00 0.64 99 985.1
20260906010133 23 171 0.0 0.0 0.00 0.00 0.64 99 985.1
20260906005716 23 171 0.0 0.0 0.00 0.00 0.64 99 984.7
20260906005244 23 171 0.0 0.0 0.00 0.00 0.64 99 984.7
20260906004813 23 171 0.0 0.0 0.00 0.00 0.64 99 984.7
20260906004340 23 171 0.0 0.0 0.00 0.00 0.64 99 984.7
20260906003923 23 171 0.0 0.0 0.00 0.00 0.64 99 984.7
20260906003506 23 171 0.0 0.0 0.00 0.00 0.64 99 985.1
20260906002602 23 171 0.0 0.0 0.00 0.00 0.64 99 984.7
20260906002147 23 171 0.0 0.0 0.00 0.00 0.64 99 984.7
20260906001729 23 171 0.0 0.0 0.00 0.00 0.64 99 985.1
20260906001257 23 171 0.0 0.0 0.00 0.00 0.64 99 984.7
20260906000841 23 171 0.0 0.0 0.00 0.00 0.64 98 985.1
20260906000411 23 171 0.0 0.0 0.00 0.00 0.64 98 984.7
20260905235952 24 171 0.0 0.0 0.00 0.00 0.64 97 985.1
20260905235536 24 171 0.0 0.0 0.00 0.00 0.64 98 984.7
20260905235047 24 171 0.0 0.0 0.00 0.00 0.64 97 984.7
20260905234631 24 171 1.6 1.6 0.00 0.00 0.64 97 984.7
20260905234216 24 172 0.0 0.0 0.00 0.00 0.64 96 985.1
20260905233801 25 172 0.0 0.0 0.00 0.00 0.64 96 985.1
20260905233345 25 172 0.0 0.0 0.00 0.00 0.64 96 985.1
20260905231547 25 171 0.0 1.6 0.00 0.00 0.64 95 985.1
20260905231119 25 171 0.0 0.0 0.00 0.00 0.64 95 985.1
20260905230219 25 171 0.0 1.6 0.00 0.00 0.64 93 985.1
20260905225747 25 171 0.0 0.0 0.00 0.00 0.64 93 984.7
20260905225317 25 171 0.0 1.6 0.00 0.00 0.64 93 984.7
20260905224846 25 172 0.0 1.6 0.00 0.00 0.64 92 985.1
20260905224429 26 172 0.0 0.0 0.00 0.00 0.64 92 984.7
20260905224010 26 172 0.0 1.6 0.00 0.00 0.64 91 984.7
20260905223539 26 170 0.0 1.6 0.00 0.00 0.64 91 985.1
20260905223125 26 170 0.0 0.0 0.00 0.00 0.64 91 985.1
20260905222710 26 171 0.0 1.6 0.00 0.00 0.64 88 985.1
20260905222255 26 172 1.6 1.6 0.00 0.00 0.64 87 984.7
20260905221839 27 171 1.6 1.6 0.00 0.00 0.64 85 984.7
20260905220938 27 189 1.6 3.2 0.00 0.00 0.64 84 984.7
20260905220520 27 187 0.0 1.6 0.00 0.00 0.64 82 984.4
20260905220046 27 179 1.6 3.2 0.00 0.00 0.64 84 984.7
20260905215630 27 180 0.0 3.2 0.00 0.00 0.64 83 984.7
20260905215159 27 185 0.0 1.6 0.00 0.00 0.64 84 984.7
20260905214312 26 192 0.0 0.0 0.00 0.00 0.64 84 984.4
20260905212943 27 195 1.6 3.2 0.00 0.00 0.64 79 984.4
20260905212044 28 195 0.0 1.6 0.00 0.00 0.64 78 984.4
20260905211614 30 196 1.6 3.2 0.00 0.00 0.64 74 984.0
20260905211158 29 196 0.0 1.6 0.00 0.00 0.64 76 984.4
20260905210743 28 196 3.2 3.2 0.00 0.00 0.64 78 984.0
20260905204925 30 186 1.6 4.8 0.00 0.00 0.64 73 984.0
20260905204510 30 183 3.2 4.8 0.00 0.00 0.64 70 984.0
20260905204053 30 194 3.2 4.8 0.00 0.00 0.64 72 984.0
20260905203637 30 190 4.8 4.8 0.00 0.00 0.64 71 984.0
20260905203223 30 193 1.6 3.2 0.00 0.00 0.64 72 984.0
20260905202807 30 186 3.2 4.8 0.00 0.00 0.64 69 984.0
20260905202353 30 193 1.6 3.2 0.00 0.00 0.64 69 984.0
20260905201939 30 196 1.6 3.2 0.00 0.00 0.64 69 984.0
20260905201524 31 185 1.6 3.2 0.00 0.00 0.64 69 984.0
20260905201053 31 181 3.2 4.8 0.00 0.00 0.64 67 984.0
20260905200154 30 199 4.8 6.4 0.00 0.00 0.64 70 984.0
20260905195724 30 192 0.0 3.2 0.00 0.00 0.64 69 984.0
20260905195307 30 198 3.2 3.2 0.00 0.00 0.64 69 984.4
20260905194404 30 193 1.6 4.8 0.00 0.00 0.64 69 984.4
20260905193500 30 196 3.2 6.4 0.00 0.00 0.64 70 984.4
20260905193043 30 198 1.6 6.4 0.00 0.00 0.64 67 984.4
20260905192613 30 198 3.2 4.8 0.00 0.00 0.64 70 984.4
20260905192142 30 203 3.2 6.4 0.00 0.00 0.64 71 984.7
20260905191726 30 193 1.6 3.2 0.00 0.00 0.64 74 984.7
20260905191255 30 199 3.2 9.7 0.00 0.00 0.64 70 985.1
20260905190840 30 197 0.0 9.7 0.00 0.00 0.64 67 985.1
20260905190408 30 200 3.2 11.3 0.00 0.00 0.64 69 985.1
20260905185937 30 194 1.6 3.2 0.00 0.00 0.64 71 985.1
20260905185522 30 195 3.2 3.2 0.00 0.00 0.64 69 985.1
20260905185051 29 187 1.6 6.4 0.00 0.00 0.64 69 985.1
20260905184637 30 192 1.6 4.8 0.00 0.00 0.64 70 985.4
20260905184222 30 192 1.6 3.2 0.00 0.00 0.64 70 985.4
20260905183735 30 200 3.2 4.8 0.00 0.00 0.64 68 985.7
20260905183319 30 185 3.2 3.2 0.00 0.00 0.64 70 985.4
20260905182900 30 193 1.6 4.8 0.00 0.00 0.64 73 985.7
20260905182014 29 188 0.0 3.2 0.00 0.00 0.64 76 985.7
20260905181554 29 186 1.6 3.2 0.00 0.00 0.64 75 985.7
20260905181123 29 169 1.6 3.2 0.00 0.00 0.64 74 985.7
20260905180706 30 200 6.4 6.4 0.00 0.00 0.64 73 985.7
20260905175804 29 165 0.0 4.8 0.00 0.00 0.64 77 985.7
20260905175349 29 187 1.6 4.8 0.00 0.00 0.64 78 985.7
20260905174934 28 191 3.2 4.8 0.00 0.00 0.64 79 985.7
20260905174050 27 181 0.0 4.8 0.00 0.00 0.64 83 985.7
20260905173634 27 190 0.0 1.6 0.00 0.00 0.64 83 985.7
20260905173204 27 191 0.0 3.2 0.00 0.00 0.64 83 985.7
20260905172747 27 190 3.2 4.8 0.00 0.00 0.64 84 985.7
20260905171900 27 170 1.6 1.6 0.00 0.00 0.64 83 985.7
20260905171444 27 188 0.0 6.4 0.00 0.00 0.64 84 986.1
20260905170542 27 193 3.2 4.8 0.00 0.00 0.64 86 986.1
20260905170127 26 187 3.2 4.8 0.00 0.00 0.64 87 986.4
20260905165711 26 189 3.2 3.2 0.00 0.00 0.64 88 986.4
20260905165253 26 189 1.6 3.2 0.00 0.00 0.64 90 986.4
20260905164836 25 190 1.6 6.4 0.00 0.00 0.64 92 986.7
20260905164422 25 186 3.2 9.7 0.00 0.00 0.64 93 986.4
20260905163949 25 183 3.2 4.8 0.00 0.00 0.64 96 986.4
20260905163518 24 168 1.6 4.8 0.00 0.00 0.64 98 986.4
20260905163048 24 176 1.6 3.2 0.00 0.00 0.64 98 986.4
20260905162632 24 138 0.0 0.0 0.00 0.00 0.64 97 986.4
20260905162200 24 135 0.0 1.6 0.00 0.00 0.64 97 986.4
20260905161743 25 132 0.0 0.0 0.00 0.00 0.64 98 986.4
20260905161327 25 131 0.0 1.6 0.00 0.00 0.64 97 986.7
20260905160856 25 152 0.0 0.0 0.00 0.00 0.64 97 986.4
20260905160442 25 140 0.0 0.0 0.00 0.00 0.64 97 986.7
20260905160011 24 139 0.0 4.8 0.00 0.00 0.64 96 986.7
20260905155541 25 125 1.6 3.2 0.00 0.00 0.64 95 986.7
20260905154209 24 163 1.6 3.2 0.00 0.00 0.64 98 986.7
20260905153736 24 129 1.6 1.6 0.00 0.00 0.64 97 986.7
20260905153318 23 132 0.0 1.6 0.00 0.00 0.64 98 986.1
20260905152901 23 135 0.0 0.0 0.00 0.00 0.64 98 986.1
20260905152444 23 121 1.6 3.2 0.00 0.00 0.64 98 986.1
20260905152027 23 134 1.6 3.2 0.00 0.00 0.64 98 986.4
20260905151555 23 135 0.0 3.2 0.00 0.00 0.64 98 986.4
20260905151140 23 126 1.6 3.2 0.00 0.00 0.64 99 986.4
20260905150722 23 127 1.6 1.6 0.00 0.00 0.64 99 986.4
20260905150305 23 120 3.2 4.8 0.00 0.00 0.64 99 986.7
20260905145849 23 116 3.2 3.2 0.00 0.00 0.64 99 986.7
20260905145432 23 158 1.6 4.8 0.00 0.00 0.64 99 986.7
20260905145017 23 169 1.6 3.2 0.00 0.00 0.64 99 987.1
20260905144559 23 168 1.6 1.6 0.00 0.00 0.64 99 987.1
20260905144144 23 171 1.6 1.6 0.00 0.00 0.64 99 987.4
20260905143726 23 170 0.0 1.6 0.00 0.00 0.64 99 987.4
20260905143256 22 171 0.0 1.6 0.00 0.00 0.64 99 987.4
20260905142823 23 168 0.0 1.6 0.00 0.00 0.64 99 987.4
20260905142407 22 167 0.0 1.6 0.00 0.00 0.64 99 987.8
20260905141948 22 168 0.0 0.0 0.00 0.00 0.64 99 987.8
20260905141533 22 167 0.0 1.6 0.00 0.00 0.64 99 988.1
20260905140631 22 167 0.0 1.6 0.00 0.00 0.64 99 988.4
20260905140215 22 176 0.0 0.0 0.00 0.00 0.64 99 988.4
20260905135756 22 182 1.6 3.2 0.00 0.00 0.64 99 988.4
20260905135338 22 178 1.6 3.2 0.00 0.00 0.64 99 988.4
20260905134451 22 177 1.6 1.6 0.00 0.00 0.64 99 988.1
20260905134033 22 175 0.0 0.0 0.00 0.00 0.64 99 988.4
20260905133600 22 175 0.0 0.0 0.00 0.00 0.64 99 988.1
20260905133129 22 174 0.0 1.6 0.00 0.00 0.64 99 988.1
20260905132711 22 172 0.0 1.6 0.00 0.00 0.64 99 988.1
20260905131339 22 169 0.0 3.2 0.00 0.00 0.64 99 988.4
20260905130922 22 190 3.2 6.4 0.00 0.00 0.64 99 987.8
20260905130504 22 175 6.4 11.3 0.00 0.00 0.61 99 988.1
20260905130032 22 189 3.2 6.4 0.00 0.00 0.13 99 988.1
20260905125613 22 175 3.2 4.8 0.00 0.00 0.00 99 988.1
20260905124254 22 170 1.6 4.8 0.00 0.00 0.00 99 987.8
20260905123408 22 176 3.2 4.8 0.00 0.00 0.00 99 986.7
20260905122951 22 150 3.2 3.2 0.00 0.00 0.00 99 986.7
20260905122045 22 165 1.6 4.8 0.00 0.00 0.00 99 986.7
20260905121631 22 166 1.6 3.2 0.00 0.00 0.00 99 986.4
20260905121200 22 165 1.6 1.6 0.00 0.00 0.00 99 986.4
20260905120258 22 162 3.2 4.8 0.00 0.00 0.00 99 986.1
20260905114922 22 161 1.6 3.2 0.00 0.00 0.00 99 986.4
20260905114452 22 162 1.6 4.8 0.00 0.00 0.00 99 986.4
20260905114038 22 168 0.0 1.6 0.00 0.00 0.00 99 986.4
20260905113622 22 168 0.0 1.6 0.00 0.00 0.00 99 986.4
20260905113136 22 168 1.6 1.6 0.00 0.00 0.00 99 986.1
20260905112706 22 168 3.2 3.2 0.00 0.00 0.00 99 986.1
20260905112251 22 169 1.6 3.2 0.00 0.00 0.00 99 986.1
20260905111821 22 171 0.0 1.6 0.00 0.00 0.00 99 986.1
20260905111406 22 167 0.0 1.6 0.00 0.00 0.00 99 986.1
20260905110949 22 171 0.0 1.6 0.00 0.00 0.00 99 986.1
20260905110519 22 170 1.6 3.2 0.00 0.00 0.00 99 986.4
20260905110105 22 169 0.0 4.8 0.00 0.00 0.00 99 986.1